Weather History for Fairfield, IL

Change the Weather History Date:

Tuesday, December 4, 2012

  Actual Average (KMVN) Record (KMVN)
Temperature  
Mean Temperature 48 °F -  
Max Temperature 62 °F 46 °F 69 °F (1998)
Min Temperature 35 °F 30 °F 12 °F (2006)
Degree Days  
Heating Degree Days 16    
Moisture  
Dew Point 49 °F    
Average Humidity 86    
Maximum Humidity 94    
Minimum Humidity 67    
Precipitation  
Precipitation 0.01 in - - ()
Sea Level Pressure  
Sea Level Pressure 30.12 in    
Wind  
Wind Speed 6 mph (West)    
Max Wind Speed 12 mph    
Max Gust Speed -    
Visibility 10 miles    
Events Rain    
Averages and records for this station are not official NWS values.
T = Trace of Precipitation, MM = Missing Value Source: NWS Daily Summary

Daily Weather History Graph

Daily Weather History Graph

Search for Another Location

Airport:

Trip Planner

Search our weather history database for the weather conditions in past years. The results will help you decide how hot, cold, wet, or windy it might be!

Date:

Astronomy

Dec. 04, 2012 Rise Set
Actual Time 6:55 AM CST 4:32 PM CST
Civil Twilight 6:25 AM CST 5:02 PM CST
Nautical Twilight 5:52 AM CST 5:35 PM CST
Astronomical Twilight 5:20 AM CST 6:07 PM CST
Moon 10:17 PM CST (12/4) 10:51 AM CST (12/4)
Length of Visible Light 10h 36m
Length of Day
9h 37m
Waning Gibbous, 69% of the Moon is Illuminated
Dec 4
Waning Gibbous
Dec 6
Last Quarter
Dec 13
New
Dec 19
First Quarter
Dec 28
Full

Hourly Weather History & Observations

Time (CST) Temp. Dew Point Humidity Pressure Visibility Wind Dir Wind Speed Gust Speed Precip Events Conditions
12:15 AM 62.6 °F 55.4 °F 77% 30.01 in 10.0 mi SSW 9.2 mph - N/A   Unknown
12:35 AM 62.6 °F 55.4 °F 77% 30.00 in 10.0 mi SSW 10.4 mph - N/A   Unknown
12:55 AM 60.8 °F 55.4 °F 82% 29.99 in 10.0 mi South 9.2 mph - N/A   Unknown
1:15 AM 60.8 °F 55.4 °F 82% 29.99 in 10.0 mi South 9.2 mph - N/A   Unknown
1:35 AM 60.8 °F 55.4 °F 82% 30.00 in 10.0 mi SSW 5.8 mph - N/A   Unknown
1:55 AM 60.8 °F 55.4 °F 82% 30.00 in 10.0 mi SSW 5.8 mph - N/A   Unknown
2:15 AM 60.8 °F 55.4 °F 82% 30.00 in 10.0 mi SSW 5.8 mph - N/A   Unknown
2:35 AM 60.8 °F 55.4 °F 82% 30.00 in 10.0 mi SSW 6.9 mph - N/A   Unknown
2:55 AM 60.8 °F 55.4 °F 82% 30.00 in 10.0 mi SSW 6.9 mph - N/A   Unknown
3:15 AM 60.8 °F 55.4 °F 82% 30.00 in 10.0 mi SW 6.9 mph - N/A   Unknown
3:35 AM 62.6 °F 57.2 °F 82% 30.00 in 10.0 mi SW 6.9 mph - N/A   Unknown
3:55 AM 62.6 °F 57.2 °F 82% 30.00 in 10.0 mi SSW 6.9 mph - N/A   Unknown
4:15 AM 62.6 °F 57.2 °F 82% 30.00 in 10.0 mi SSW 6.9 mph - N/A   Unknown
4:35 AM 62.6 °F 57.2 °F 82% 30.00 in 10.0 mi South 6.9 mph - N/A   Unknown
4:55 AM 62.6 °F 57.2 °F 82% 30.00 in 10.0 mi SSW 5.8 mph - N/A   Unknown
5:15 AM 62.6 °F 57.2 °F 82% 30.00 in 10.0 mi SSW 5.8 mph - N/A   Unknown
5:35 AM 62.6 °F 57.2 °F 82% 30.01 in 10.0 mi SSW 4.6 mph - N/A   Unknown
5:55 AM 62.6 °F 57.2 °F 82% 30.01 in 10.0 mi SSW 6.9 mph - N/A   Unknown
6:15 AM 62.6 °F 59.0 °F 88% 30.02 in 10.0 mi SW 6.9 mph - N/A Rain Rain
6:35 AM 62.6 °F 59.0 °F 88% 30.02 in 10.0 mi SW 6.9 mph - N/A Rain Light Rain
6:55 AM 62.6 °F 59.0 °F 88% 30.03 in 10.0 mi WSW 6.9 mph - N/A   Unknown
7:15 AM 62.6 °F 59.0 °F 88% 30.04 in 10.0 mi SW 8.1 mph - N/A   Unknown
7:35 AM 62.6 °F 57.2 °F 82% 30.04 in 7.0 mi WSW 5.8 mph - N/A Rain Rain
7:55 AM 62.6 °F 59.0 °F 88% 30.05 in 10.0 mi West 3.5 mph - N/A   Unknown
8:15 AM 60.8 °F 57.2 °F 88% 30.06 in 10.0 mi West 3.5 mph - N/A   Unknown
8:35 AM 60.8 °F 57.2 °F 88% 30.06 in 10.0 mi WNW 4.6 mph - N/A   Unknown
8:55 AM 60.8 °F 57.2 °F 88% 30.08 in 7.0 mi North 11.5 mph - N/A   Unknown
9:15 AM 55.4 °F 53.6 °F 94% 30.08 in 7.0 mi NNW 9.2 mph - N/A   Unknown
9:35 AM 55.4 °F 53.6 °F 94% 30.09 in 7.0 mi North 5.8 mph - N/A   Unknown
9:55 AM 55.4 °F 53.6 °F 94% 30.10 in 7.0 mi NNW 3.5 mph - N/A   Unknown
10:15 AM 55.4 °F 53.6 °F 94% 30.12 in 5.0 mi NW 4.6 mph - N/A Rain Light Rain
10:35 AM 55.4 °F 51.8 °F 88% 30.13 in 5.0 mi NW 6.9 mph - N/A Rain Light Rain
10:55 AM 53.6 °F 51.8 °F 94% 30.12 in 7.0 mi NNW 10.4 mph - 0.01 in Rain Light Rain
11:15 AM 53.6 °F 51.8 °F 94% 30.11 in 10.0 mi North 10.4 mph - N/A   Light Drizzle
11:35 AM 53.6 °F 51.8 °F 94% 30.09 in 10.0 mi North 6.9 mph - N/A   Unknown
11:55 AM 53.6 °F 51.8 °F 94% 30.09 in 10.0 mi North 6.9 mph - N/A   Unknown
12:15 PM 53.6 °F 51.8 °F 94% 30.09 in 10.0 mi North 9.2 mph - N/A Rain Light Rain
12:35 PM 53.6 °F 50.0 °F 88% 30.09 in 10.0 mi North 8.1 mph - N/A   Unknown
12:55 PM 53.6 °F 50.0 °F 88% 30.10 in 10.0 mi NNW 6.9 mph - N/A   Unknown
1:15 PM 53.6 °F 50.0 °F 88% 30.10 in 10.0 mi North 9.2 mph - N/A   Unknown
1:35 PM 53.6 °F 50.0 °F 88% 30.11 in 7.0 mi North 9.2 mph - N/A   Unknown
1:55 PM 53.6 °F 50.0 °F 88% 30.10 in 10.0 mi North 8.1 mph - N/A   Unknown
2:15 PM 53.6 °F 50.0 °F 88% 30.12 in 10.0 mi North 9.2 mph - N/A   Unknown
2:35 PM 53.6 °F 48.2 °F 82% 30.13 in 10.0 mi North 9.2 mph - N/A   Unknown
2:55 PM 53.6 °F 48.2 °F 82% 30.14 in 10.0 mi North 8.1 mph - N/A   Unknown
3:35 PM 53.6 °F 42.8 °F 67% 30.16 in 10.0 mi North 9.2 mph - N/A   Unknown
3:55 PM 53.6 °F 44.6 °F 72% 30.18 in 10.0 mi North 5.8 mph - N/A   Unknown
4:15 PM 53.6 °F 44.6 °F 72% 30.19 in 10.0 mi North 3.5 mph - N/A   Unknown
4:35 PM 51.8 °F 44.6 °F 76% 30.21 in 10.0 mi Calm Calm - N/A   Unknown
4:55 PM 51.8 °F 44.6 °F 76% 30.21 in 10.0 mi North 3.5 mph - N/A   Unknown
5:15 PM 51.8 °F 44.6 °F 76% 30.21 in 10.0 mi Calm Calm - N/A   Unknown
5:35 PM 50.0 °F 44.6 °F 82% 30.21 in 10.0 mi Calm Calm - N/A   Unknown
5:55 PM 50.0 °F 44.6 °F 82% 30.22 in 10.0 mi Calm Calm - N/A   Unknown
6:15 PM 48.2 °F 44.6 °F 87% 30.23 in 10.0 mi Calm Calm - N/A   Unknown
6:35 PM 46.4 °F 42.8 °F 87% 30.23 in 10.0 mi Calm Calm - N/A   Unknown
6:55 PM 44.6 °F 41.0 °F 87% 30.24 in 10.0 mi Calm Calm - N/A   Unknown
7:15 PM 44.6 °F 42.8 °F 93% 30.25 in 10.0 mi Calm Calm - N/A   Unknown
7:35 PM 44.6 °F 41.0 °F 87% 30.25 in 10.0 mi Calm Calm - N/A   Unknown
7:55 PM 42.8 °F 41.0 °F 93% 30.25 in 10.0 mi Calm Calm - N/A   Unknown
8:35 PM 42.8 °F 39.2 °F 87% 30.26 in 10.0 mi Calm Calm - N/A   Unknown
8:55 PM 39.2 °F 37.4 °F 93% 30.26 in 10.0 mi Calm Calm - N/A   Unknown
9:15 PM 41.0 °F 39.2 °F 93% 30.26 in 10.0 mi Calm Calm - N/A   Unknown
9:35 PM 39.2 °F 37.4 °F 93% 30.27 in 10.0 mi Calm Calm - N/A   Unknown
9:55 PM 39.2 °F 37.4 °F 93% 30.27 in 10.0 mi Calm Calm - N/A   Unknown
10:15 PM 39.2 °F 37.4 °F 93% 30.27 in 10.0 mi Calm Calm - N/A   Unknown
10:35 PM 37.4 °F 35.6 °F 93% 30.28 in 10.0 mi Calm Calm - N/A   Unknown
10:55 PM 39.2 °F 37.4 °F 93% 30.28 in 10.0 mi Calm Calm - N/A   Unknown
11:03 PM 37.4 °F 35.6 °F 93% 30.28 in 10.0 mi Calm Calm - N/A   Unknown
11:15 PM 35.6 °F 33.8 °F 93% 30.28 in 10.0 mi Calm Calm - N/A   Unknown
11:35 PM 37.4 °F 35.6 °F 93% 30.29 in 10.0 mi Calm Calm - N/A   Unknown
11:55 PM 37.4 °F 35.6 °F 93% 30.29 in 10.0 mi Calm Calm - N/A   Unknown